Provincetown, Massachusetts, United States (02657)
Lat: 42.06N, Lon: 70.18W
Wx Zone: MAZ022
Local Info
Past Weather Observations for Today

NOTE: This archive is for the closest National Weather Service station to Provincetown. Information may differ from the station used for current weather conditions.

Click here for Long-term Archive

Time Weather Temperature Dewpoint Humidity Pressure Winds Precip Visibility
21:56
Overcast
48°F / 9°C 28°F / -2°C 46% 29.92 in
(1013 mb)
NW 11.5 mph
(NW 19 kph)
- 10SM
20:56
Overcast
48°F / 9°C 25°F / -4°C 40% 29.89 in
(1012 mb)
NW 12.7 mph
(NW 20 kph)
- 10SM
19:56
Overcast
50°F / 10°C 28°F / -2°C 43% 29.89 in
(1012 mb)
NNW 15 mph
(NNW 24 kph)
- 10SM
18:56
Overcast
52°F / 11°C 32°F / 0°C 47% 29.86 in
(1011 mb)
NNW 16.1 mph
(NNW 26 kph)
- 10SM
17:56
Overcast
52°F / 11°C 30°F / -1°C 44% 29.83 in
(1010 mb)
NNW 11.5 mph
(NNW 19 kph)
- 10SM
16:56
Overcast
52°F / 11°C 34°F / 1°C 50% 29.8 in
(1009 mb)
NNW 11.5 mph
(NNW 19 kph)
- 10SM
15:56
Overcast
54°F / 12°C 36°F / 2°C 51% 29.77 in
(1008 mb)
NNW 13.8 mph
(NNW 22 kph)
- 10SM
14:56
Overcast
54°F / 12°C 37°F / 3°C 54% 29.74 in
(1007 mb)
N 12.7 mph
(N 20 kph)
- 10SM
13:56
Partly Cloudy
55°F / 13°C 37°F / 3°C 51% 29.74 in
(1007 mb)
NNW 11.5 mph
(NNW 19 kph)
- 10SM
12:56
Clear
55°F / 13°C 37°F / 3°C 51% 29.74 in
(1007 mb)
N 17.3 mph
(N 28 kph)
- 10SM
11:56
Overcast
54°F / 12°C 37°F / 3°C 54% 29.71 in
(1006 mb)
N 12.7 mph
(N 20 kph)
- 10SM
10:56
Overcast
54°F / 12°C 39°F / 4°C 58% 29.71 in
(1006 mb)
N 15 mph
(N 24 kph)
- 10SM
09:56
Overcast
54°F / 12°C 39°F / 4°C 58% 29.74 in
(1007 mb)
NW 15 mph
(NW 24 kph)
- 10SM
08:56
Overcast
54°F / 12°C 43°F / 6°C 67% 29.74 in
(1007 mb)
N 12.7 mph
(N 20 kph)
- 10SM
08:53
Overcast
55°F / 13°C 45°F / 7°C 67% 29.74 in
(1007 mb)
NNW 12.7 mph
(NNW 20 kph)
- 10SM
08:12
Overcast
55°F / 13°C 45°F / 7°C 67% 29.74 in
(1007 mb)
NNW 11.5 mph
(NNW 19 kph)
- 10SM
07:56
Overcast
55°F / 13°C 45°F / 7°C 67% 29.74 in
(1007 mb)
NNW 10.4 mph
(NNW 17 kph)
- 10SM
06:56
Overcast
55°F / 13°C 48°F / 9°C 77% 29.71 in
(1006 mb)
NW 6.9 mph
(NW 11 kph)
- 10SM
05:56
Overcast
54°F / 12°C 46°F / 8°C 77% 29.68 in
(1005 mb)
WNW 6.9 mph
(WNW 11 kph)
- 10SM
04:56
Mostly Cloudy
54°F / 12°C 46°F / 8°C 77% 29.65 in
(1004 mb)
W 4.6 mph
(W 7 kph)
- 10SM
03:56
Mostly Cloudy
55°F / 13°C 48°F / 9°C 77% 29.65 in
(1004 mb)
W 5.8 mph
(W 9 kph)
- 10SM
02:56
Overcast
57°F / 14°C 48°F / 9°C 72% 29.62 in
(1003 mb)
W 8.1 mph
(W 13 kph)
- 10SM
01:56
Overcast
57°F / 14°C 46°F / 8°C 67% 29.62 in
(1003 mb)
W 6.9 mph
(W 11 kph)
- 10SM
00:56
Overcast
59°F / 15°C 48°F / 9°C 68% 29.62 in
(1003 mb)
SSW 8.1 mph
(SSW 13 kph)
- 10SM
Time Weather Temperature Dewpoint Humidity Pressure Winds Precip Visibility


Weather for websites

WeatherForYou.com, LLC is not responsible for any damages or problems caused by this service. Current weather conditions are obtained from the closest station including government and personal stations which may have varying degrees of accuracy. Weather forecasts are derived from the NOAA NDFD. Like all things, this site belongs to Jesus Christ... He just trusts me to maintain it. If you have any questions or comments email webmaster@weatherforyou.com

Copyright © 2014, WeatherForYou.com LLC. All rights reserved.